星链-3981 (STARLINK-3981 )

导读

STARLINK-3981是美国SpaceX公司星链星座中的一颗卫星,于2022年5月18日发射升空,属于星链项目低轨互联网卫星群组。它沿近地轨道运行,承担着为全球提供高速宽带互联网服务的任务,尤其为偏远地区和网络基础设施薄弱区域提供网络接入支持,是星链全球组网建设中的组成单元。

基本信息
目录编号:
52687
目录名称:
STARLINK-3981
国际标识:
2022-053AH
轨道中心:
EARTH
卫星名称:
星链-3981
卫星全名:
星链-3981 (STARLINK-3981 )
卫星状态:
在轨 (已飞行1491 天)
发射日期:
2022-05-18 UTC
国别 :
美国 (US)
星等 :
--
轨道信息
数据来源 国际轨道数据 AOE轨道数据
星历时间 2026-06-17T08:27:33+0800
13小时前
查看轨道信息
2026-06-15T00:00:00+0800
2天前
查看轨道信息
半长轴 6917.901km 6917.892km
偏心率 0.0001337 0.0001305
轨道倾角 53.160° 53.160°
近地点辐角 89.492° 107.777°
升交点赤经 58.120° 68.696°
平近点角 270.622° 67.213°
近地点 538.839km 538.852km
远地点 540.689km 540.658km
周期 95.438分钟 95.438分钟
每日圈数 15.088335 15.088364
详细信息
固有亮度:
5
最大亮度:
2.5
卫星平台:
Starlink v1.5
覆盖范围:
全球
运营商:
太空探索技术公司
运营商所在国:
美国
制造商(研发单位):
太空探索技术公司
制造商所在国:
美国
使用方式:
暂无
卫星简介
星链(Starlink)计划是由太空探索技术公司(SpaceX)提出的一个巨型低轨卫星互联网星座项目,计划在2019年至2024年间在太空搭建由约1.2万颗卫星组成的“星链”网络,其中1584颗将部署在地球上空550千米处的近地轨道,并从2020年开始工作。该卫星仍在工作。
2D轨道图
3D轨道图
轨道高度分析图
轨道倾角分析图
轨道综合分析图
查看轨道综合分析图